Content
SEND FEEDBACK

Daily
Averages
Monthly
Summary
United States of America

CEDAR BLUFFS, NEBRASKA


Home > North America > United States > Nebraska
Elevation: 1187 feet     Latitude: 41 26N     Longitude: 096 29W

WEATHER
 
SELECT A DAY
Number of Records: 432,866;   Date Range: 11/7/95 - 8/30/14
 
SHARE

PRINT THIS DATA

[ ← Previous Day ]
WEATHER ALMANAC - JANUARY 18, 2013
[ Next Day → ]
[ °C ]   °F
Weather ElementAverageHighLow
Temperature39.1 °F48 °F (3:15 pm)30.9 °F (1:15 am)
Dewpoint31.4 °F34.2 °F (3:15 pm)28.4 °F (4:35 am)
Humidity74.8 %98 % (12:55 am)57 % (1:35 pm)
Barometer30.00 in30.25 in (12:35 am)29.88 in (11:35 pm)
Wind Speed8.4 mph17.3 mph (11:55 am)
Wind Gust26.5 mph (11:35 am)
Weather ElementAverage
Visibility9.8 mi
Wind DirectionS (182.5 °)

Weather ElementTotal
Precipitation---
Heating Degree Days25.6 (Base 65)
Averaged from 71 records on January 18, 2013
WEATHER CONDITIONS BREAKOUT
WIND DIRECTION BREAKOUT
WEATHER BY HOUR - JANUARY 18, 2013
[ °C ]   °F
Local TimeTemperatureDewpointHumidityBarometerVisibilityWind DirectionWind SpeedGust SpeedPrecipitationEventsConditions
12:35 AM31.8 °F30.9 °F96 %30.25 in7.0 miCalmClear
12:55 AM31.1 °F30.6 °F98 %30.24 in7.0 miSE (130°)6.9 mphClear
1:15 AM30.9 °F30.4 °F98 %30.23 in7.0 miSE (140°)8.1 mphClear
1:35 AM31.1 °F30.2 °F96 %30.22 in7.0 miCalmClear
1:55 AM32.0 °F30.9 °F96 %30.21 in10.0 miSE (140°)3.5 mphClear
2:15 AM32.9 °F31.1 °F93 %30.20 in10.0 miSouth (170°)8.1 mphClear
2:35 AM33.8 °F31.1 °F90 %30.19 in10.0 miSouth (180°)8.1 mphClear
2:55 AM34.5 °F30.7 °F86 %30.17 in10.0 miSouth (180°)11.5 mphClear
3:15 AM34.0 °F30.4 °F87 %30.16 in10.0 miSouth (170°)8.1 mphClear
3:35 AM34.2 °F30.2 °F85 %30.14 in10.0 miSouth (180°)10.4 mphClear
3:55 AM33.8 °F29.3 °F84 %30.14 in10.0 miSouth (190°)9.2 mph16.1 mphClear
4:15 AM32.9 °F28.9 °F85 %30.13 in10.0 miSouth (190°)6.9 mphClear
4:35 AM32.4 °F28.4 °F85 %30.12 in10.0 miCalmClear
4:55 AM32.9 °F28.4 °F84 %30.11 in10.0 miSSW (210°)4.6 mphClear
5:15 AM34.0 °F28.8 °F81 %30.10 in10.0 miSSW (200°)9.2 mphClear
5:35 AM35.2 °F28.8 °F77 %30.08 in10.0 miSSW (200°)11.5 mph17.3 mphClear
5:55 AM35.2 °F28.8 °F77 %30.06 in10.0 miSouth (190°)12.7 mph18.4 mphClear
6:15 AM35.6 °F28.9 °F77 %30.05 in10.0 miSouth (190°)16.1 mph23.0 mphClear
6:35 AM34.5 °F28.6 °F79 %30.03 in10.0 miSouth (190°)16.1 mph21.9 mphClear
6:55 AM34.9 °F28.4 °F77 %30.03 in10.0 miSouth (190°)12.7 mphClear
7:15 AM34.9 °F28.4 °F77 %30.03 in10.0 miSSW (200°)9.2 mph18.4 mphClear
7:35 AM34.7 °F28.4 °F78 %30.04 in10.0 miSSW (210°)8.1 mphClear
7:55 AM34.3 °F28.9 °F81 %30.04 in10.0 miSSW (210°)5.8 mphClear
8:15 AM34.9 °F29.1 °F79 %30.04 in10.0 miSSW (200°)4.6 mphClear
8:35 AM35.4 °F29.5 °F79 %30.04 in10.0 miSSW (200°)6.9 mphClear
8:55 AM36.1 °F30.2 °F79 %30.03 in10.0 miSouth (190°)8.1 mphClear
9:15 AM37.9 °F30.9 °F76 %30.02 in10.0 miSouth (190°)10.4 mphClear
9:35 AM38.8 °F31.3 °F74 %30.03 in10.0 miSSW (200°)12.7 mph17.3 mphClear
9:55 AM39.6 °F32.0 °F74 %30.01 in10.0 miSouth (190°)15.0 mph23.0 mphClear
10:15 AM40.5 °F32.0 °F72 %30.03 in10.0 miSW (230°)12.7 mph16.1 mphClear
10:35 AM40.6 °F32.0 °F71 %30.02 in10.0 miSW (220°)11.5 mph18.4 mphClear
10:55 AM41.7 °F32.0 °F68 %30.01 in10.0 miSW (220°)11.5 mph18.4 mphClear
11:15 AM42.6 °F32.0 °F66 %29.99 in10.0 miSSW (210°)16.1 mph23.0 mphClear
11:35 AM43.0 °F32.0 °F65 %29.98 in10.0 miSW (220°)15.0 mph26.5 mphClear
11:55 AM43.5 °F32.0 °F64 %29.96 in10.0 miSSW (210°)17.3 mph20.7 mphClear
12:15 PM44.6 °F32.7 °F63 %29.96 in10.0 miSW (220°)16.1 mph23.0 mphClear
12:35 PM44.8 °F32.7 °F63 %29.94 in10.0 miSW (220°)13.8 mphClear
12:55 PM45.3 °F33.1 °F62 %29.93 in10.0 miSSW (210°)12.7 mph17.3 mphClear
1:15 PM45.7 °F33.3 °F62 %29.94 in10.0 miSW (220°)11.5 mph23.0 mphClear
1:35 PM47.5 °F32.7 °F57 %29.94 in10.0 miSW (230°)13.8 mph18.4 mphClear
1:55 PM47.3 °F33.3 °F58 %29.93 in10.0 miSSW (210°)12.7 mph19.6 mphClear
2:15 PM47.3 °F32.7 °F57 %29.93 in10.0 miSW (220°)11.5 mphClear
2:35 PM47.3 °F33.3 °F58 %29.92 in10.0 miSSW (210°)10.4 mphClear
2:55 PM47.7 °F34.0 °F59 %29.93 in10.0 miWSW (240°)9.2 mphClear
3:15 PM48.0 °F34.2 °F59 %29.92 in10.0 miSW (220°)8.1 mphClear
3:35 PM47.7 °F33.8 °F59 %29.92 in10.0 miSW (220°)9.2 mphClear
3:55 PM47.3 °F33.3 °F58 %29.92 in10.0 miSSW (210°)12.7 mph17.3 mphClear
4:15 PM46.6 °F34.2 °F62 %29.92 in10.0 miSW (220°)10.4 mphClear
4:35 PM45.9 °F33.8 °F63 %29.93 in10.0 miSSW (210°)10.4 mphClear
4:55 PM44.6 °F33.8 °F66 %29.93 in10.0 miSSW (210°)6.9 mphClear
5:15 PM43.2 °F33.1 °F68 %29.93 in10.0 miSW (220°)5.8 mphClear
5:35 PM41.0 °F32.9 °F73 %29.93 in10.0 miSSW (200°)5.8 mphClear
5:55 PM41.2 °F32.9 °F72 %29.93 in10.0 miSouth (190°)8.1 mphClear
6:15 PM41.4 °F32.9 °F72 %29.92 in10.0 miSouth (190°)6.9 mphClear
6:35 PM41.2 °F32.9 °F72 %29.93 in10.0 miSSW (200°)10.4 mphClear
6:55 PM41.2 °F32.5 °F71 %29.93 in10.0 miSSW (210°)9.2 mphClear
7:15 PM40.1 °F32.4 °F74 %29.93 in10.0 miSW (220°)8.1 mphClear
7:35 PM39.9 °F32.2 °F74 %29.94 in10.0 miSW (230°)4.6 mphClear
7:55 PM39.2 °F32.0 °F75 %29.93 in10.0 miSW (230°)5.8 mphClear
8:15 PM38.7 °F32.0 °F77 %29.92 in10.0 miSW (220°)6.9 mphClear
8:35 PM38.1 °F31.8 °F78 %29.92 in10.0 miCalmClear
8:55 PM38.8 °F32.0 °F76 %29.91 in10.0 miSW (220°)3.5 mphClear
9:15 PM39.2 °F32.0 °F75 %29.91 in10.0 miCalmClear
9:35 PM37.6 °F31.6 °F79 %29.91 in10.0 miCalmClear
9:55 PM37.6 °F31.5 °F79 %29.91 in10.0 miWest (260°)3.5 mphClear
10:15 PM37.6 °F31.3 °F78 %29.90 in10.0 miCalmClear
10:35 PM38.5 °F31.5 °F76 %29.89 in10.0 miSW (230°)3.5 mphClear
10:55 PM39.6 °F31.8 °F74 %29.89 in10.0 miWSW (250°)5.8 mphClear
11:15 PM39.4 °F31.8 °F74 %29.89 in10.0 miWSW (240°)5.8 mphClear
11:35 PM38.8 °F31.5 °F75 %29.88 in10.0 miWSW (240°)4.6 mphClear
11:55 PM36.7 °F31.1 °F80 %29.88 in10.0 miCalmClear
Hourly data recorded from KFET, located miles away from Cedar Bluffs, Nebraska







STORIES FROM OUR PARTNERS